Location: Chuathbaluk
(61.5726°N, 159.2454°W)
Time: 17:14:07
(UTC+00:00)

NOAA 15 - Pass Details

Date: 23 January 2021
Orbit: 798 x 812 km, 98.7° (Epoch: 05 March)

Event Time Altitude Azimuth Distance (km) Brightness Sun altitude
Rises 06:32:17 0° 207° (SSW) 3,307 7.9 -29.2°
Reaches altitude 10° 06:35:07 10° 222° (SW) 2,383 7.3 -29.5°
Maximum altitude 06:39:11 22° 273° (W) 1,692 6.9 -30.0°
Drops below altitude 10° 06:43:18 10° 324° (NW) 2,403 7.6 -30.5°
Sets 06:46:11 0° 339° (NNW) 3,341 8.3 -30.8°
